KE6LRO Weather Reports


Display with metric or nautical units.
time (UTC)temp
F
wind
direction
speed
MPH
gust
MPH
rain 1hr
in
rain 24hr
in
rain mn
in
humidity
%
barometer
mb
20260906141026 51 124 0.0 0.0 0.00 0.02 0.02 99 1021.9
20260906140520 51 125 0.0 0.0 0.00 0.02 0.02 99 1022.1
20260906140020 51 124 0.0 0.0 0.00 0.02 0.02 99 1021.9
20260906135517 51 124 0.0 0.0 0.00 0.02 0.02 99 1021.9
20260906135013 51 124 0.0 0.0 0.00 0.02 0.02 99 1021.8
20260906134509 50 124 0.0 0.0 0.00 0.02 0.02 99 1021.9
20260906134008 51 124 0.0 0.0 0.00 0.02 0.02 99 1021.8
20260906133504 50 124 0.0 0.0 0.00 0.02 0.02 99 1021.8
20260906132959 50 124 0.0 0.0 0.00 0.02 0.02 99 1021.8
20260906132454 50 124 0.0 0.0 0.00 0.02 0.02 99 1021.8
20260906131950 50 124 0.0 0.0 0.00 0.02 0.02 99 1021.6
20260906131445 50 124 0.0 0.0 0.00 0.02 0.02 99 1021.6
20260906130941 50 124 0.0 0.0 0.00 0.02 0.02 99 1021.6
20260906130440 50 124 0.0 0.0 0.00 0.02 0.02 99 1021.5
20260906125935 50 124 0.0 0.0 0.00 0.02 0.02 99 1021.7
20260906125431 50 124 0.0 1.0 0.00 0.02 0.02 99 1021.8
20260906124926 50 125 0.0 0.0 0.00 0.02 0.02 99 1022.1
20260906124422 50 125 0.0 0.0 0.00 0.02 0.02 99 1021.9
20260906123922 50 125 0.0 0.0 0.00 0.02 0.02 99 1021.8
20260906123421 50 126 0.0 0.0 0.00 0.02 0.02 99 1022.2
20260906122915 50 126 0.0 0.0 0.00 0.02 0.02 99 1022.1
20260906122411 50 126 0.0 0.0 0.00 0.02 0.02 99 1021.9
20260906121907 50 126 0.0 0.0 0.00 0.02 0.02 99 1021.6
20260906121403 50 126 0.0 0.0 0.00 0.02 0.02 99 1021.8
20260906120859 50 126 0.0 1.0 0.00 0.02 0.02 99 1022.2
20260906120354 50 130 0.0 0.0 0.00 0.02 0.02 99 1022.0
20260906115850 50 129 0.0 0.0 0.00 0.02 0.02 99 1022.1
20260906115345 49 128 0.0 0.0 0.00 0.02 0.02 99 1022.1
20260906114845 49 128 0.0 0.0 0.00 0.02 0.02 99 1022.0
20260906114341 50 130 0.0 1.0 0.00 0.02 0.02 99 1021.9
20260906113841 50 351 0.0 0.0 0.00 0.02 0.02 99 1022.0
20260906113340 49 44 0.0 0.0 0.00 0.02 0.02 99 1022.0
20260906112836 49 45 0.0 0.0 0.00 0.02 0.02 99 1022.0
20260906112332 49 49 0.0 1.0 0.00 0.02 0.02 99 1021.9
20260906111831 50 332 0.0 0.0 0.00 0.02 0.02 99 1022.5
20260906111325 50 329 0.0 1.0 0.00 0.02 0.02 99 1022.2
20260906110821 50 115 0.0 0.0 0.00 0.02 0.02 99 1022.4
20260906110316 50 115 0.0 0.0 0.00 0.02 0.02 99 1022.4
20260906105815 49 230 0.0 0.0 0.00 0.02 0.02 99 1022.2
20260906105311 50 230 0.0 0.0 0.00 0.02 0.02 99 1022.2
20260906104807 50 230 0.0 0.0 0.00 0.02 0.02 99 1022.7
20260906104305 50 231 0.0 0.0 0.00 0.02 0.02 99 1022.5
20260906103804 50 267 0.0 0.0 0.00 0.02 0.02 99 1022.4
20260906103303 50 268 0.0 0.0 0.00 0.02 0.02 99 1022.4
20260906102759 50 268 0.0 0.0 0.00 0.02 0.02 99 1022.2
20260906102257 50 267 0.0 0.0 0.00 0.02 0.02 99 1022.0
20260906101753 50 267 0.0 0.0 0.00 0.02 0.02 99 1022.2
20260906101248 50 267 0.0 0.0 0.00 0.02 0.02 99 1022.6
20260906100743 50 268 0.0 0.0 0.00 0.02 0.02 99 1022.2
20260906100242 50 265 0.0 0.0 0.00 0.02 0.02 99 1022.4
20260906095738 50 227 1.0 2.0 0.00 0.02 0.02 99 1022.7
20260906095233 50 74 0.0 1.0 0.00 0.02 0.02 99 1022.4
20260906094732 50 11 1.0 3.0 0.00 0.02 0.02 99 1022.1
20260906094227 50 296 0.0 0.0 0.00 0.02 0.02 99 1022.4
20260906093724 51 296 0.0 0.0 0.00 0.02 0.02 99 1022.7
20260906093219 50 67 0.0 1.0 0.00 0.02 0.02 99 1023.0
20260906092715 50 320 1.0 2.0 0.00 0.02 0.02 99 1022.7
20260906092214 50 129 0.0 0.0 0.00 0.02 0.02 99 1022.7
20260906091711 50 131 0.0 0.0 0.00 0.02 0.02 99 1022.9
20260906091207 50 124 0.0 0.0 0.00 0.02 0.02 99 1022.9
20260906090703 50 125 0.0 1.0 0.00 0.02 0.02 99 1022.9
20260906090201 50 42 0.0 1.0 0.00 0.02 0.02 99 1023.0
20260906085701 50 28 0.0 0.0 0.00 0.02 0.02 99 1022.9
20260906085200 51 284 0.0 0.0 0.00 0.02 0.02 99 1022.8
20260906084655 51 223 0.0 0.0 0.00 0.02 0.02 99 1022.7
20260906084154 50 236 0.0 0.0 0.00 0.02 0.02 99 1022.9
20260906083649 50 182 2.0 2.0 0.00 0.02 0.02 99 1022.7
20260906083145 51 91 0.0 1.0 0.00 0.02 0.02 99 1022.9
20260906082640 50 10 1.0 1.0 0.00 0.02 0.02 99 1023.0
20260906082135 50 308 1.0 2.0 0.00 0.02 0.02 99 1023.0
20260906081631 51 48 0.0 0.0 0.00 0.02 0.02 99 1022.9
20260906081126 50 324 0.0 1.0 0.00 0.02 0.02 99 1022.7
20260906080623 50 184 1.0 1.0 0.00 0.02 0.02 99 1022.8
20260906080119 50 97 0.0 0.0 0.00 0.02 0.02 99 1022.5
20260906075613 50 53 0.0 0.0 0.00 0.02 0.02 99 1022.8
20260906075108 50 303 1.0 1.0 0.00 0.02 0.02 99 1023.0
20260906074603 51 311 0.0 0.0 0.00 0.02 0.02 99 1022.8
20260906074102 50 63 0.0 1.0 0.07 0.02 0.02 99 1022.8
20260906073556 50 348 1.0 2.0 0.07 0.02 0.02 99 1022.7
20260906073052 51 313 2.0 2.0 0.00 0.01 0.01 99 1022.1
20260906072546 51 226 0.0 0.0 0.00 0.01 0.01 99 1022.8
20260906072043 50 187 1.0 2.0 0.00 0.01 0.01 99 1022.8
20260906071539 50 191 0.0 1.0 0.00 0.01 0.01 98 1022.6
20260906071033 50 122 2.0 3.0 0.00 0.01 0.01 99 1022.7
20260906070530 49 151 0.0 0.0 0.00 0.01 0.01 98 1022.6
20260906070025 49 111 0.0 0.0 0.00 0.01 0.01 98 1022.6
20260906065524 49 110 0.0 0.0 0.00 0.01 0.01 98 1022.2
20260906065020 50 111 0.0 1.0 0.00 0.01 0.01 98 1022.4
20260906064516 50 232 0.0 0.0 0.00 0.01 0.01 97 1022.1
20260906064011 50 233 1.0 1.0 0.00 0.01 0.01 97 1021.8
20260906063506 50 63 0.0 1.0 0.00 0.01 0.01 97 1021.8
20260906063001 51 59 1.0 2.0 0.00 0.01 0.01 96 1021.9
20260906062456 51 263 1.0 2.0 0.00 0.01 0.01 96 1022.0
20260906061951 51 64 0.0 6.0 0.00 0.01 0.01 96 1022.5
20260906061448 51 12 0.0 0.0 0.00 0.01 0.01 96 1022.0
20260906060942 51 77 0.0 1.0 0.05 0.01 0.01 95 1022.6
20260906060439 51 315 0.0 3.0 0.00 0.00 0.00 94 1022.2
20260906055935 51 311 3.0 6.0 0.00 0.00 0.00 93 1022.5
20260906055431 51 165 4.0 5.0 0.00 0.00 0.00 91 1023.7
20260906054926 51 141 0.0 0.0 0.00 0.00 0.00 91 1023.2
20260906054421 51 4 0.0 0.0 0.00 0.00 0.00 91 1023.1
20260906053917 51 35 0.0 0.0 0.00 0.00 0.00 90 1023.0
20260906053412 51 354 0.0 0.0 0.00 0.00 0.00 90 1023.0
20260906052908 51 106 0.0 0.0 0.00 0.00 0.00 90 1022.9
20260906052404 51 110 0.0 0.0 0.00 0.00 0.00 91 1023.4
20260906051900 50 109 0.0 0.0 0.00 0.00 0.00 92 1023.2
20260906051400 50 109 0.0 0.0 0.00 0.00 0.00 92 1023.0
20260906050856 50 108 0.0 0.0 0.00 0.00 0.00 91 1023.1
20260906050350 50 109 0.0 0.0 0.00 0.00 0.00 91 1023.1
20260906045849 50 110 0.0 0.0 0.00 0.00 0.00 91 1023.0
20260906045344 50 111 0.0 0.0 0.00 0.00 0.00 91 1023.0
20260906044840 50 111 0.0 0.0 0.00 0.00 0.00 91 1023.1
20260906044340 50 100 0.0 0.0 0.00 0.00 0.00 91 1023.1
20260906043836 51 159 0.0 0.0 0.00 0.00 0.00 91 1023.2
20260906043332 51 142 0.0 0.0 0.00 0.00 0.00 91 1023.2
20260906042827 51 142 0.0 0.0 0.00 0.00 0.00 90 1022.9
20260906042326 51 143 0.0 0.0 0.00 0.00 0.00 89 1023.1
20260906041821 52 123 0.0 0.0 0.00 0.00 0.00 88 1023.1
20260906041317 52 123 1.0 1.0 0.00 0.00 0.00 88 1023.2
20260906040812 52 280 0.0 0.0 0.00 0.00 0.00 88 1023.0
20260906040307 52 342 0.0 0.0 0.00 0.00 0.00 88 1022.9
20260906035802 52 16 0.0 0.0 0.00 0.00 0.00 88 1022.7
20260906035258 52 332 0.0 0.0 0.00 0.00 0.00 87 1022.7
20260906034758 53 336 0.0 0.0 0.00 0.00 0.00 87 1022.9
20260906034257 53 336 0.0 0.0 0.00 0.00 0.00 86 1022.7
20260906033753 53 336 0.0 0.0 0.00 0.00 0.00 85 1022.5
20260906033252 54 336 0.0 0.0 0.00 0.00 0.00 84 1022.6
20260906032749 54 336 0.0 0.0 0.00 0.00 0.00 84 1022.6
20260906032250 54 334 0.0 0.0 0.00 0.00 0.00 83 1022.7
20260906031745 55 346 0.0 0.0 0.00 0.00 0.00 83 1022.5
20260906031241 55 19 0.0 0.0 0.00 0.00 0.00 83 1022.5
20260906030741 55 331 0.0 0.0 0.00 0.00 0.00 82 1022.2
20260906030236 55 21 0.0 1.0 0.00 0.00 0.00 82 1022.5
20260906025735 56 237 0.0 1.0 0.00 0.00 0.00 80 1022.4
20260906025235 56 346 0.0 0.0 0.00 0.00 0.00 82 1022.6
20260906024734 56 346 0.0 0.0 0.00 0.00 0.00 81 1022.1
20260906024233 56 346 0.0 0.0 0.00 0.00 0.00 80 1022.0
20260906023729 57 346 0.0 0.0 0.00 0.00 0.00 80 1022.0
20260906023225 57 346 0.0 0.0 0.00 0.00 0.00 78 1021.9
20260906022720 57 346 0.0 0.0 0.00 0.00 0.00 78 1021.8
20260906022215 58 346 0.0 0.0 0.00 0.00 0.00 78 1021.9
20260906021711 59 346 0.0 0.0 0.00 0.00 0.00 76 1021.9
20260906021209 59 345 0.0 0.0 0.00 0.00 0.00 75 1021.8
20260906020705 60 353 0.0 0.0 0.00 0.00 0.00 73 1021.7
20260906020159 60 353 0.0 0.0 0.00 0.00 0.00 70 1021.6
20260906015654 61 26 0.0 0.0 0.00 0.00 0.00 69 1021.5
20260906015153 62 23 2.0 2.0 0.00 0.00 0.00 66 1021.8
20260906014652 62 49 1.0 3.0 0.00 0.00 0.00 65 1021.6
20260906014149 63 47 0.0 0.0 0.00 0.00 0.00 63 1021.7
20260906013644 63 63 1.0 5.0 0.00 0.00 0.00 62 1021.3
20260906013139 64 36 1.0 3.0 0.00 0.00 0.00 60 1021.3
20260906012640 64 356 1.0 3.0 0.00 0.00 0.00 61 1021.2
20260906012139 64 44 0.0 5.0 0.00 0.00 0.00 59 1021.2
20260906011635 64 42 0.0 1.0 0.00 0.00 0.00 63 1021.1
20260906011130 64 33 0.0 1.0 0.00 0.00 0.00 65 1021.0
20260906010625 63 353 1.0 1.0 0.00 0.00 0.00 61 1021.2
20260906010122 63 349 0.0 1.0 0.00 0.00 0.00 67 1021.1
20260906005621 64 330 1.0 2.0 0.00 0.00 0.00 64 1021.0
20260906005120 66 300 0.0 2.0 0.00 0.00 0.00 59 1021.0
20260906004620 68 316 1.0 2.0 0.00 0.00 0.00 54 1021.1
20260906004115 69 295 1.0 2.0 0.00 0.00 0.00 55 1021.0
20260906003610 70 299 1.0 1.0 0.00 0.00 0.00 53 1021.0
20260906003106 70 305 2.0 5.0 0.00 0.00 0.00 51 1020.9
20260906002600 70 315 2.0 5.0 0.00 0.00 0.00 50 1021.0
20260906002055 70 300 4.0 6.0 0.00 0.00 0.00 47 1020.9
20260906001551 70 300 3.0 5.0 0.00 0.00 0.00 48 1020.9
20260906001051 70 309 4.0 6.0 0.00 0.00 0.00 48 1020.9
20260906000547 70 287 4.0 5.0 0.00 0.00 0.00 50 1020.7
20260906000042 70 308 3.0 5.0 0.00 0.00 0.00 48 1021.1
20260905235535 69 293 3.0 3.0 0.00 0.00 0.00 52 1021.1
20260905235031 68 322 1.0 3.0 0.00 0.00 0.00 55 1021.1
20260905234526 69 309 3.0 6.0 0.00 0.00 0.00 51 1021.0
20260905234026 70 329 3.0 3.0 0.00 0.00 0.00 48 1020.8
20260905233521 69 309 3.0 3.0 0.00 0.00 0.00 50 1021.1
20260905233021 69 325 2.0 5.0 0.00 0.00 0.00 51 1020.8
20260905232511 70 338 4.0 8.0 0.00 0.00 0.00 48 1021.0
20260905232007 71 356 4.0 5.0 0.00 0.00 0.00 47 1021.1
20260905231502 71 6 1.0 6.0 0.00 0.00 0.00 47 1021.0
20260905230958 71 306 3.0 6.0 0.00 0.00 0.00 47 1021.1
20260905230457 71 320 6.0 7.0 0.00 0.00 0.00 46 1021.1
20260905225955 71 339 3.0 7.0 0.00 0.00 0.00 47 1020.9
20260905225450 70 296 3.0 6.0 0.00 0.00 0.00 49 1021.2
20260905224946 70 304 8.0 10.0 0.00 0.00 0.00 47 1021.0
20260905224441 71 319 3.0 6.0 0.00 0.00 0.00 47 1021.2
20260905223939 71 277 3.0 11.0 0.00 0.00 0.00 47 1021.1
20260905223438 71 301 4.0 7.0 0.00 0.00 0.00 46 1021.2
20260905222933 71 325 3.0 6.0 0.00 0.00 0.00 47 1021.3
20260905222432 70 7 1.0 3.0 0.00 0.00 0.00 48 1021.5
20260905221927 69 25 3.0 5.0 0.00 0.00 0.00 48 1021.7
20260905221425 69 16 6.0 7.0 0.00 0.00 0.00 48 1021.3
20260905220920 69 311 3.0 6.0 0.00 0.00 0.00 49 1021.6
20260905220416 71 356 3.0 6.0 0.00 0.00 0.00 47 1021.3
20260905215915 70 308 3.0 7.0 0.00 0.00 0.00 48 1021.8
20260905215411 71 287 1.0 7.0 0.00 0.00 0.00 48 1021.7
20260905214907 70 51 3.0 8.0 0.00 0.00 0.00 49 1021.7
20260905214402 69 34 4.0 6.0 0.00 0.00 0.00 50 1021.7
20260905213856 69 335 6.0 8.0 0.00 0.00 0.00 50 1021.8
20260905213353 69 313 5.0 14.0 0.00 0.00 0.00 50 1021.9
20260905212853 69 56 9.0 14.0 0.00 0.00 0.00 48 1022.0
20260905212348 68 300 5.0 8.0 0.00 0.00 0.00 50 1022.0
20260905211841 68 8 6.0 8.0 0.00 0.00 0.00 51 1022.1
20260905211337 68 336 3.0 10.0 0.00 0.00 0.00 52 1022.1
20260905210833 68 306 4.0 9.0 0.00 0.00 0.00 53 1022.0
20260905210327 68 45 5.0 7.0 0.00 0.00 0.00 52 1022.4
20260905205826 68 23 7.0 7.0 0.00 0.00 0.00 53 1022.2
20260905205321 68 352 3.0 6.0 0.00 0.00 0.00 53 1022.0
20260905204820 68 319 1.0 7.0 0.00 0.00 0.00 52 1022.1
20260905204317 69 15 5.0 7.0 0.00 0.00 0.00 51 1022.2
20260905203815 70 315 5.0 7.0 0.00 0.00 0.00 51 1022.1
20260905203311 69 84 3.0 8.0 0.00 0.00 0.00 53 1022.4
20260905202807 69 51 3.0 11.0 0.00 0.00 0.00 52 1022.1
20260905202301 68 51 3.0 9.0 0.00 0.00 0.00 54 1022.2
20260905201757 67 355 4.0 6.0 0.00 0.00 0.00 54 1022.5
20260905201252 67 317 6.0 9.0 0.00 0.00 0.00 53 1022.4
20260905200747 67 39 1.0 2.0 0.00 0.00 0.00 55 1022.6
20260905200243 67 26 5.0 9.0 0.00 0.00 0.00 54 1022.5
20260905195741 67 34 3.0 7.0 0.00 0.00 0.00 55 1022.5
20260905195236 66 23 4.0 7.0 0.00 0.00 0.00 57 1022.7
20260905194732 66 3 4.0 6.0 0.00 0.00 0.00 53 1022.8
20260905194231 67 2 3.0 8.0 0.00 0.00 0.00 53 1022.7
20260905193730 68 41 5.0 7.0 0.00 0.00 0.00 51 1022.7
20260905193226 68 52 6.0 8.0 0.00 0.00 0.00 51 1022.8
20260905192721 67 304 5.0 7.0 0.00 0.00 0.00 55 1022.8
20260905192218 67 303 5.0 8.0 0.00 0.00 0.00 51 1022.8
20260905191717 67 354 8.0 9.0 0.00 0.00 0.00 51 1022.9
20260905191215 67 326 5.0 7.0 0.00 0.00 0.00 53 1022.7
20260905190714 67 312 3.0 8.0 0.00 0.00 0.00 56 1022.9
20260905190213 67 330 5.0 7.0 0.00 0.00 0.00 56 1022.8
20260905185712 66 4 3.0 7.0 0.00 0.00 0.00 55 1022.8
20260905185207 65 336 4.0 8.0 0.00 0.00 0.00 57 1023.0
20260905184707 65 333 1.0 6.0 0.00 0.00 0.00 59 1022.8
20260905184205 66 325 2.0 8.0 0.00 0.00 0.00 57 1023.0
20260905183659 65 4 4.0 10.0 0.00 0.00 0.00 57 1023.0
20260905183155 66 359 4.0 8.0 0.00 0.00 0.00 56 1023.0
20260905182654 65 359 3.0 8.0 0.00 0.00 0.00 56 1023.2
20260905182154 65 322 5.0 7.0 0.00 0.00 0.00 55 1023.2
20260905181650 64 52 2.0 6.0 0.00 0.00 0.00 56 1023.4
20260905181148 64 25 1.0 2.0 0.00 0.00 0.00 57 1023.5
20260905180643 63 311 4.0 6.0 0.00 0.00 0.00 59 1023.4
20260905180138 64 63 2.0 5.0 0.00 0.00 0.00 62 1023.5
20260905175637 63 36 2.0 6.0 0.00 0.00 0.00 63 1023.4
20260905175133 62 328 3.0 6.0 0.00 0.00 0.00 61 1023.5
20260905174629 62 258 0.0 1.0 0.00 0.00 0.00 63 1023.5
20260905174124 61 54 0.0 3.0 0.00 0.00 0.00 65 1023.6
20260905173620 62 17 2.0 2.0 0.00 0.00 0.00 64 1023.7
20260905173116 62 280 1.0 2.0 0.00 0.00 0.00 64 1023.7
20260905172614 61 10 3.0 3.0 0.00 0.00 0.00 65 1023.7
20260905172109 60 301 1.0 2.0 0.00 0.00 0.00 66 1023.9
20260905171606 61 30 2.0 3.0 0.00 0.00 0.00 66 1024.0
20260905171101 60 12 2.0 6.0 0.00 0.00 0.00 70 1024.0
20260905170558 59 298 0.0 3.0 0.00 0.00 0.00 71 1023.9
20260905170053 59 327 2.0 5.0 0.00 0.00 0.00 70 1024.0
20260905165548 59 345 0.0 1.0 0.00 0.00 0.00 71 1024.0
20260905165043 57 9 1.0 3.0 0.00 0.00 0.00 75 1024.0
20260905164537 58 325 3.0 5.0 0.00 0.00 0.00 74 1024.1
20260905164032 58 306 3.0 3.0 0.00 0.00 0.00 73 1024.0
20260905163528 58 343 2.0 3.0 0.00 0.00 0.00 74 1024.4
20260905163024 56 51 0.0 0.0 0.00 0.00 0.00 75 1024.2
20260905162520 57 342 1.0 2.0 0.00 0.00 0.00 75 1024.4
20260905162014 57 97 0.0 2.0 0.00 0.00 0.00 75 1024.1
20260905161509 56 170 1.0 1.0 0.00 0.00 0.00 77 1024.5
20260905161006 54 65 0.0 0.0 0.00 0.00 0.00 80 1024.5
20260905160500 53 43 2.0 2.0 0.00 0.00 0.00 82 1024.4
20260905155959 54 41 0.0 2.0 0.00 0.00 0.00 81 1024.5
20260905155454 53 115 0.0 2.0 0.00 0.00 0.00 82 1024.6
20260905154953 52 89 1.0 2.0 0.00 0.00 0.00 85 1024.7
20260905154448 51 130 1.0 2.0 0.00 0.00 0.00 87 1024.6
20260905153944 50 89 1.0 2.0 0.00 0.00 0.00 91 1024.6
20260905153440 49 129 0.0 1.0 0.00 0.00 0.00 94 1024.6
20260905152939 48 137 0.0 0.0 0.00 0.00 0.00 99 1024.8
20260905152439 46 22 0.0 0.0 0.00 0.00 0.00 99 1024.9
20260905151939 44 22 0.0 0.0 0.00 0.00 0.00 99 1024.7
20260905151435 44 26 0.0 0.0 0.00 0.00 0.00 99 1024.8
20260905150930 44 27 0.0 0.0 0.00 0.00 0.00 99 1024.8
20260905150430 43 27 0.0 0.0 0.00 0.00 0.00 99 1025.1
20260905145926 44 27 0.0 0.0 0.00 0.00 0.00 99 1025.1
20260905145421 44 28 0.0 0.0 0.00 0.00 0.00 99 1024.9
20260905144921 43 29 0.0 0.0 0.00 0.00 0.00 99 1025.0
20260905144417 44 29 0.0 0.0 0.00 0.00 0.00 99 1025.0
20260905143915 44 29 0.0 0.0 0.00 0.00 0.00 99 1024.8
20260905143410 43 29 0.0 0.0 0.00 0.00 0.00 99 1024.9
20260905142909 43 29 0.0 0.0 0.00 0.00 0.00 99 1024.7
20260905142408 43 29 0.0 0.0 0.00 0.00 0.00 99 1024.8
20260905141904 43 29 0.0 0.0 0.00 0.00 0.00 99 1024.7